Content
SEND FEEDBACK

Daily
Averages
Monthly
Summary
United States of America

PRAIRE DU CHIEN, WISCONSIN


Home > North America > United States > Wisconsin
Elevation: 656 feet     Latitude: 43 50N     Longitude: 091 47W

WEATHER
 
SELECT A DAY
Number of Records: 370,116;   Date Range: 4/21/99 - 8/28/14
 
SHARE

PRINT THIS DATA

[ ← Previous Day ]
WEATHER ALMANAC - JANUARY 31, 2013
[ Next Day → ]
[ °C ]   °F
Weather ElementAverageHighLow
Temperature5.7 °F15.8 °F (12:35 am)-4 °F (11:55 pm)
Dewpoint-2.1 °F8.6 °F (1:15 am)-11.2 °F (11:15 pm)
Humidity70.4 %79 % (1:15 am)61 % (12:15 pm)
Barometer29.97 in30.26 in (11:55 pm)29.72 in (12:35 am)
Wind Speed15.6 mph21.9 mph (1:35 pm)
Wind Gust29.9 mph (2:15 pm)
Weather ElementAverage
Visibility9.4 mi
Wind DirectionWNW (279.4 °)

Weather ElementTotal
Precipitation---
Heating Degree Days59.1 (Base 65)
Averaged from 70 records on January 31, 2013
WEATHER CONDITIONS BREAKOUT
WIND DIRECTION BREAKOUT
WEATHER BY HOUR - JANUARY 31, 2013
[ °C ]   °F
Local TimeTemperatureDewpointHumidityBarometerVisibilityWind DirectionWind SpeedGust SpeedPrecipitationEventsConditions
12:35 AM15.8 °F6.8 °F68 %29.72 in10.0 miWest (280°)16.1 mph23.0 mphOvercast
12:55 AM15.8 °F6.8 °F68 %29.73 in10.0 miWest (280°)12.7 mph18.4 mphOvercast
1:15 AM14.0 °F8.6 °F79 %29.73 in7.0 miWest (270°)15.0 mphSnowLight Snow
1:35 AM14.0 °F8.6 °F79 %29.73 in7.0 miWest (270°)16.1 mphSnowLight Snow
1:55 AM14.0 °F6.8 °F73 %29.74 in10.0 miWest (270°)15.0 mph20.7 mphOvercast
2:15 AM14.0 °F6.8 °F73 %29.75 in10.0 miWest (270°)16.1 mph21.9 mphOvercast
2:35 AM14.0 °F6.8 °F73 %29.76 in10.0 miWest (270°)16.1 mph25.3 mphOvercast
2:55 AM12.2 °F6.8 °F79 %29.76 in10.0 miWest (270°)13.8 mph19.6 mphOvercast
3:15 AM12.2 °F6.8 °F79 %29.76 in10.0 miWest (280°)13.8 mph20.7 mphOvercast
3:35 AM12.2 °F5.0 °F73 %29.76 in10.0 miWest (270°)18.4 mph24.2 mphOvercast
3:55 AM10.4 °F3.2 °F73 %29.76 in10.0 miWest (270°)13.8 mph20.7 mphOvercast
4:15 AM10.4 °F3.2 °F73 %29.77 in10.0 miWest (280°)15.0 mph18.4 mphOvercast
4:35 AM10.4 °F3.2 °F73 %29.78 in10.0 miWest (270°)11.5 mph20.7 mphOvercast
4:55 AM8.6 °F1.4 °F73 %29.78 in10.0 miWest (270°)15.0 mph21.9 mphMostly Cloudy
5:15 AM8.6 °F1.4 °F73 %29.79 in10.0 miWest (270°)11.5 mph21.9 mphOvercast
5:35 AM8.6 °F1.4 °F73 %29.80 in10.0 miWest (270°)15.0 mph21.9 mphOvercast
5:55 AM8.6 °F1.4 °F73 %29.81 in10.0 miWest (270°)15.0 mphOvercast
6:15 AM8.6 °F3.2 °F79 %29.82 in7.0 miWest (270°)11.5 mphOvercast
6:35 AM8.6 °F1.4 °F73 %29.82 in10.0 miWest (280°)18.4 mphOvercast
6:55 AM8.6 °F1.4 °F73 %29.84 in10.0 miWest (270°)15.0 mph21.9 mphOvercast
7:15 AM6.8 °F-0.4 °F72 %29.85 in10.0 miWNW (290°)18.4 mph21.9 mphOvercast
7:35 AM6.8 °F-0.4 °F72 %29.86 in10.0 miWNW (290°)16.1 mph21.9 mphOvercast
7:55 AM6.8 °F-0.4 °F72 %29.86 in10.0 miWest (270°)17.3 mph24.2 mphOvercast
8:15 AM6.8 °F-0.4 °F72 %29.87 in10.0 miWNW (290°)13.8 mph24.2 mphOvercast
8:35 AM6.8 °F-2.2 °F67 %29.88 in10.0 miWest (280°)13.8 mph23.0 mphOvercast
8:55 AM5.0 °F-2.2 °F72 %29.89 in10.0 miWNW (290°)15.0 mph20.7 mphOvercast
9:15 AM5.0 °F-2.2 °F72 %29.90 in4.0 miWNW (290°)18.4 mphHaze
9:35 AM5.0 °F-2.2 °F72 %29.91 in10.0 miWest (280°)13.8 mphOvercast
9:55 AM6.8 °F-2.2 °F67 %29.92 in10.0 miWest (280°)16.1 mphOvercast
10:15 AM6.8 °F-2.2 °F67 %29.93 in10.0 miWest (270°)17.3 mph21.9 mphOvercast
10:35 AM6.8 °F-2.2 °F67 %29.94 in10.0 miWest (280°)13.8 mphOvercast
10:55 AM6.8 °F-2.2 °F67 %29.95 in10.0 miWest (280°)13.8 mph20.7 mphOvercast
11:15 AM6.8 °F-2.2 °F67 %29.95 in10.0 miWest (280°)17.3 mph24.2 mphOvercast
11:35 AM6.8 °F-2.2 °F67 %29.96 in10.0 miWest (280°)18.4 mphOvercast
11:55 AM5.0 °F-4.0 °F66 %29.97 in10.0 miWest (270°)15.0 mph25.3 mphOvercast
12:15 PM6.8 °F-4.0 °F61 %29.97 in10.0 miWest (280°)18.4 mph23.0 mphOvercast
12:35 PM5.0 °F-4.0 °F66 %29.97 in10.0 miWest (280°)20.7 mphOvercast
12:55 PM5.0 °F-4.0 °F66 %29.98 in10.0 miWest (280°)17.3 mph23.0 mphOvercast
1:15 PM5.0 °F-4.0 °F66 %29.99 in10.0 miWest (280°)17.3 mph26.5 mphOvercast
1:35 PM5.0 °F-4.0 °F66 %29.98 in10.0 miWest (270°)21.9 mphOvercast
1:55 PM5.0 °F-4.0 °F66 %29.99 in10.0 miWest (280°)20.7 mph24.2 mphOvercast
2:15 PM5.0 °F-4.0 °F66 %30.00 in7.0 miWest (280°)21.9 mph29.9 mphMostly Cloudy
2:35 PM5.0 °F-4.0 °F66 %30.01 in7.0 miWest (280°)19.6 mph24.2 mphMostly Cloudy
2:55 PM5.0 °F-4.0 °F66 %30.01 in7.0 miWest (280°)21.9 mph27.6 mphMostly Cloudy
3:15 PM5.0 °F-4.0 °F66 %30.02 in10.0 miWest (280°)21.9 mph28.8 mphMostly Cloudy
3:35 PM5.0 °F-4.0 °F66 %30.03 in7.0 miWest (280°)19.6 mph26.5 mphOvercast
3:55 PM5.0 °F-4.0 °F66 %30.05 in10.0 miWest (280°)18.4 mph23.0 mphMostly Cloudy
4:15 PM5.0 °F-5.8 °F61 %30.05 in10.0 miWest (280°)20.7 mphMostly Cloudy
4:35 PM3.2 °F-4.0 °F72 %30.06 in10.0 miWest (280°)18.4 mphOvercast
4:55 PM3.2 °F-4.0 °F72 %30.08 in4.0 miWest (280°)16.1 mph21.9 mphHaze
5:15 PM3.2 °F-4.0 °F72 %30.09 in5.0 miWest (280°)16.1 mph23.0 mphHaze
5:35 PM3.2 °F-4.0 °F72 %30.10 in7.0 miWest (280°)17.3 mph20.7 mphOvercast
5:55 PM3.2 °F-4.0 °F72 %30.12 in7.0 miWest (280°)12.7 mphOvercast
6:15 PM1.4 °F-4.0 °F78 %30.12 in10.0 miWest (280°)15.0 mph19.6 mphOvercast
6:35 PM1.4 °F-5.8 °F72 %30.13 in10.0 miWest (280°)17.3 mphOvercast
6:55 PM1.4 °F-5.8 °F72 %30.14 in10.0 miWest (270°)12.7 mphMostly Cloudy
7:15 PM1.4 °F-5.8 °F72 %30.16 in10.0 miWest (280°)15.0 mphOvercast
7:35 PM1.4 °F-5.8 °F72 %30.16 in10.0 miWest (280°)15.0 mphOvercast
7:55 PM1.4 °F-5.8 °F72 %30.17 in10.0 miWest (280°)11.5 mph17.3 mphScattered Clouds
8:15 PM-0.4 °F-7.6 °F72 %30.18 in10.0 miWNW (290°)13.8 mphClear
8:35 PM-0.4 °F-7.6 °F72 %30.18 in10.0 miWNW (290°)13.8 mphClear
8:55 PM-0.4 °F-7.6 °F72 %30.19 in10.0 miWNW (290°)13.8 mph19.6 mphClear
9:15 PM-0.4 °F-9.4 °F66 %30.20 in10.0 miWNW (300°)9.2 mphClear
9:35 PM-0.4 °F-9.4 °F66 %30.21 in10.0 miWNW (290°)10.4 mphClear
9:55 PM-2.2 °F-9.4 °F71 %30.22 in10.0 miWNW (290°)11.5 mphClear
10:15 PM-2.2 °F-9.4 °F71 %30.22 in10.0 miWNW (290°)13.8 mph18.4 mphClear
10:35 PM-2.2 °F-9.4 °F71 %30.23 in10.0 miWest (280°)10.4 mphClear
11:15 PM-2.2 °F-11.2 °F66 %30.24 in10.0 miWNW (290°)11.5 mphClear
11:35 PM-2.2 °F-11.2 °F66 %30.25 in10.0 miWNW (290°)9.2 mphClear
11:55 PM-4.0 °F-11.2 °F71 %30.26 in10.0 miWNW (290°)11.5 mphClear
Hourly data recorded from KPDC, located miles away from Praire du Chien, Wisconsin







STORIES FROM OUR PARTNERS